Weather History for Pensacola NAS, FL

Change the Weather History Date:

Tuesday, January 7, 2014

  Actual Average Record
Temperature  
Mean Temperature 26 °F -  
Max Temperature 32 °F 59 °F - (-1)
Min Temperature 19 °F 40 °F - (-1)
Degree Days  
Heating Degree Days 40    
Moisture  
Dew Point 3 °F    
Average Humidity 41    
Maximum Humidity 68    
Minimum Humidity 28    
Precipitation  
Precipitation 0.00 in - - ()
Sea Level Pressure  
Sea Level Pressure 30.57 in    
Wind  
Wind Speed 9 mph (North)    
Max Wind Speed 15 mph    
Max Gust Speed 20 mph    
Visibility 10 miles    
Events      
Averages and records for this station are not official NWS values.
T = Trace of Precipitation, MM = Missing Value Source: NWS Daily Summary

Daily Weather History Graph

Daily Weather History Graph

Search for Another Location

Airport:

Trip Planner

Search our weather history database for the weather conditions in past years. The results will help you decide how hot, cold, wet, or windy it might be!

Date:

Astronomy

Jan. 07, 2014 Rise Set
Actual Time 6:46 AM CST 5:04 PM CST
Civil Twilight 6:20 AM CST 5:30 PM CST
Nautical Twilight 5:51 AM CST 6:00 PM CST
Astronomical Twilight 5:21 AM CST 6:29 PM CST
Moon 11:06 AM CST (1/7) No Moon Set
Length of Visible Light 11h 09m
Length of Day
10h 17m
Waxing Crescent, 46% of the Moon is Illuminated
Jan 7
Waxing Crescent
Jan 7
First Quarter
Jan 15
Full
Jan 23
Last Quarter
Jan 30
New

Hourly Weather History & Observations

Time (CST) Temp. Windchill Dew Point Humidity Pressure Visibility Wind Dir Wind Speed Gust Speed Precip Events Conditions
12:56 AM 23.0 °F 11.1 °F 1.9 °F 40% 30.56 in 10.0 mi North 12.7 mph 19.6 mph N/A   Clear
1:56 AM 21.9 °F 10.4 °F 1.0 °F 40% 30.57 in 10.0 mi NNW 11.5 mph - N/A   Clear
2:56 AM 21.0 °F 10.6 °F -0.0 °F 40% 30.57 in 10.0 mi North 9.2 mph - N/A   Clear
3:56 AM 19.9 °F 9.3 °F -0.0 °F 42% 30.58 in 10.0 mi NNW 9.2 mph - N/A   Clear
4:56 AM 19.9 °F 9.3 °F 1.0 °F 44% 30.59 in 10.0 mi North 9.2 mph - N/A   Clear
5:56 AM 19.0 °F 9.0 °F 1.0 °F 46% 30.60 in 10.0 mi North 8.1 mph - N/A   Mostly Cloudy
6:39 AM 19.0 °F 10.0 °F 1.9 °F 47% 30.62 in 10.0 mi NNW 6.9 mph - N/A   Mostly Cloudy
6:56 AM 19.0 °F 10.0 °F 1.9 °F 47% 30.63 in 10.0 mi North 6.9 mph - N/A   Mostly Cloudy
7:56 AM 19.0 °F 9.0 °F 3.9 °F 52% 30.64 in 10.0 mi North 8.1 mph - N/A   Mostly Cloudy
8:56 AM 21.9 °F 8.7 °F 1.0 °F 40% 30.66 in 10.0 mi NNE 15.0 mph 19.6 mph N/A   Mostly Cloudy
9:56 AM 25.0 °F 14.2 °F 1.0 °F 36% 30.64 in 10.0 mi NNE 11.5 mph 18.4 mph N/A   Mostly Cloudy
10:56 AM 26.1 °F 16.2 °F -0.9 °F 31% 30.62 in 10.0 mi NNW 10.4 mph - N/A   Mostly Cloudy
11:56 AM 28.9 °F 18.6 °F 1.9 °F 32% 30.58 in 10.0 mi NNW 12.7 mph 18.4 mph N/A   Mostly Cloudy
12:56 PM 28.0 °F 20.0 °F 1.0 °F 31% 30.56 in 10.0 mi NNW 8.1 mph 16.1 mph N/A   Mostly Cloudy
1:56 PM 32.0 °F 26.4 °F 3.0 °F 29% 30.54 in 10.0 mi Variable 5.8 mph - N/A   Mostly Cloudy
2:56 PM 32.0 °F 27.5 °F 1.9 °F 28% 30.55 in 10.0 mi North 4.6 mph - N/A   Mostly Cloudy
3:56 PM 32.0 °F 24.8 °F 3.0 °F 29% 30.54 in 10.0 mi NNW 8.1 mph - N/A   Mostly Cloudy
4:56 PM 30.0 °F 23.2 °F 3.0 °F 32% 30.53 in 10.0 mi North 6.9 mph - N/A   Mostly Cloudy
5:56 PM 30.0 °F 23.2 °F 3.9 °F 33% 30.53 in 10.0 mi North 6.9 mph - N/A   Mostly Cloudy
6:56 PM 28.0 °F 24.2 °F 5.0 °F 38% 30.56 in 10.0 mi North 3.5 mph - N/A   Mostly Cloudy
7:56 PM 28.0 °F 19.3 °F 6.1 °F 39% 30.54 in 10.0 mi North 9.2 mph - N/A   Mostly Cloudy
8:56 PM 27.0 °F 17.3 °F 7.0 °F 43% 30.52 in 10.0 mi NNE 10.4 mph - N/A   Mostly Cloudy
9:56 PM 26.1 °F 21.9 °F 7.0 °F 44% 30.53 in 10.0 mi NW 3.5 mph - N/A   Mostly Cloudy
10:56 PM 21.0 °F - 10.9 °F 65% 30.53 in 10.0 mi Calm Calm - N/A   Clear
11:56 PM 21.0 °F 16.2 °F 12.0 °F 68% 30.52 in 10.0 mi NNW 3.5 mph - N/A   Clear